Live-Position
3D-Globus wird geladen...
Über Starlink 4473
Group: 3 satellites
Beschreibung wird geladen...
Nächste Überflüge
Passes for default location (London). Set your location on the main map for personalized predictions.
Höhenverlauf
Loading altitude history...
No altitude history available
Zweizeiliger Elementsatz
1 53660U 22105N 26126.40103147 .00001330 00000-0 96312-4 0 9999
2 53660 97.5292 6.9367 0002402 77.0373 283.1122 15.05642837201915
Epoch: 6. Mai 2026 •
Age: 8 hours
Aktueller Status
Höhe 578.9 km
Geschwindigkeit 7.57 km/s
Subsatellitenpunkt -77.98°S,
77.85°W
Startdatum 31. Aug. 2022
Alter 3.6 years
Typ internet
Startgruppe
Falcon 9 •
Group 3-4 •
41 satellites
Starlink 4622
53648
Starlink 4386 53649
Starlink 4380 53650
Starlink 4388 53651
Starlink 4374 53652
Starlink 4390 53653
Starlink 4420 53654
Starlink 4470 53655
Starlink 4466 53656
Starlink 4452 53658
Starlink 4472 53661
Starlink 4357 53662
Starlink 4457 53663
Starlink 4471 53664
Starlink 4334 53665
Starlink 4406 53667
Starlink 4458 53668
Starlink 4464 53669
Starlink 4459 53670
Starlink 4440 53671
...and 20 more
Technische Details
Klassifizierung Payload
Masse 300.00 kg
Trockenmasse 290.00 kg
Gesamtmasse 300.00 kg
Länge 0.20 m
Durchmesser 2.80 m
Spannweite 9.00 m
Form Box + pan
Hersteller SPXS
Bus-Typ Starlink
Phasenstatus In Orbit
Besitzer/Staat SPXS/US
Most Searched
Loading...